Stations météo

réclame
Mon MeteoGroup
Ronneby, Suède (2664): Température de l'air & dewpoint: 12.02.2019 01:00:00 - 18.02.2019 01:00:00 (CET)Ronneby, Suède (2664): Vitesse du vent & gusts: 12.02.2019 01:00:00 - 18.02.2019 01:00:00 (CET)Ronneby, Suède (2664): Direction du vent: 12.02.2019 01:00:00 - 18.02.2019 01:00:00 (CET)Ronneby, Suède (2664): reduced air pressure: 12.02.2019 01:00:00 - 18.02.2019 01:00:00 (CET)Ronneby, Suède (2664): visibility: 12.02.2019 01:00:00 - 18.02.2019 01:00:00 (CET)Ronneby, Suède (2664): Quantités de précipitations: 12.02.2019 01:00:00 - 18.02.2019 01:00:00 (CET)
Date & Time tt [°C] td [°C] ff [km/h] ff [knt] fx [km/h] fx [knt] dd ppp [hPa] vv [km] rr [mm]
18.02.2019 01:00:00 -0,9 -0,9 2 1 4 2 N 1023,1 10 0,0
18.02.2019 00:00:00 -1,2 -1,3 4 2 4 2 N 1023,0 10 0,0
17.02.2019 23:00:00 -0,6 -0,7 0 0 4 2 N 1022,9 10 0,0
17.02.2019 22:00:00 0,5 0,4 2 1 4 2 NNE 1023,1 10 0,0
17.02.2019 21:00:00 2,0 1,9 0 0 7 4 N 1022,9 10 0,0
17.02.2019 20:00:00 3,5 3,2 0 0 7 4 N 1023,0 10 0,0
17.02.2019 19:00:00 4,1 2,8 0 0 4 2 N 1022,8 10 0,0
17.02.2019 18:00:00 6,2 4,0 2 1 7 4 WNW 1022,7 10 0,0
17.02.2019 17:00:00 6,5 4,3 8 4 14 8 W 1022,4 10 0,0
17.02.2019 16:00:00 7,3 4,3 11 6 22 12 WSW 1022,2 10 0,0
17.02.2019 15:00:00 9,6 4,0 11 6 22 12 WSW 1021,6 10 0,0
17.02.2019 14:00:00 9,7 4,5 9 5 22 12 W 1021,8 10 0,0
17.02.2019 13:00:00 8,9 4,3 13 7 22 12 W 1022,1 10 0,0
17.02.2019 12:00:00 7,7 4,6 13 7 22 12 W 1022,3 10 0,0
17.02.2019 11:00:00 6,8 4,8 13 7 22 12 WNW 1022,1 10 0,0
17.02.2019 10:00:00 5,6 4,4 11 6 25 14 W 1021,8 10 0,0
17.02.2019 09:00:00 5,7 4,5 9 5 11 6 WSW 1021,5 10 0,0
17.02.2019 08:00:00 5,2 4,2 4 2 18 10 - 1021,3 10 0,0
17.02.2019 07:00:00 6,4 4,7 11 6 18 10 W 1020,7 10 0,0
17.02.2019 06:00:00 6,3 4,9 8 4 18 10 W 1019,9 10 0,0
17.02.2019 05:00:00 6,0 5,0 9 5 18 10 W 1019,6 10 0,0
17.02.2019 04:00:00 5,6 4,9 11 6 18 10 W 1019,4 10 0,0
17.02.2019 03:00:00 5,5 4,8 11 6 14 8 WSW 1019,4 8 0,0
17.02.2019 02:00:00 5,4 4,7 8 4 14 8 WSW 1019,1 8 0,0
17.02.2019 01:00:00 5,1 4,1 8 4 14 8 WSW 1018,7 9 0,0
17.02.2019 00:00:00 5,2 3,9 9 5 14 8 WSW 1018,7 10 0,0
16.02.2019 23:00:00 4,7 3,2 8 4 14 8 WSW 1018,6 10 0,0
16.02.2019 22:00:00 4,8 2,8 5 3 11 6 WSW 1018,6 10 0,0
16.02.2019 21:00:00 5,7 2,9 8 4 14 8 WSW 1018,1 10 0,0
16.02.2019 20:00:00 6,4 2,8 9 5 14 8 SW 1017,9 10 0,0
16.02.2019 19:00:00 6,0 2,6 8 4 11 6 SW 1017,4 10 0,0
16.02.2019 18:00:00 5,0 2,9 4 2 11 6 SSW 1017,2 10 0,0
16.02.2019 17:00:00 5,0 2,9 9 5 18 10 S 1016,9 10 0,0
16.02.2019 16:00:00 6,8 3,2 13 7 22 12 SSW 1017,0 10 0,0
16.02.2019 15:00:00 9,7 3,7 13 7 18 10 SSW 1017,1 10 0,0
16.02.2019 14:00:00 8,7 3,3 11 6 22 12 SW 1017,7 10 0,0
16.02.2019 13:00:00 9,8 3,5 13 7 22 12 WSW 1018,6 10 0,0
16.02.2019 12:00:00 8,7 3,3 9 5 22 12 SW 1019,4 10 0,0
16.02.2019 11:00:00 7,1 3,5 9 5 14 8 SSW 1019,7 10 0,0
16.02.2019 10:00:00 4,9 3,2 4 2 7 4 SSW 1020,5 10 0,0
16.02.2019 09:00:00 0,9 0,8 4 2 7 4 - 1021,1 6 0,0
16.02.2019 08:00:00 -2,0 -2,0 0 0 7 4 N 1021,6 4,1 0,0
16.02.2019 07:00:00 -1,8 -1,9 5 3 7 4 S 1021,8 2,4 0,0
16.02.2019 06:00:00 -2,7 -2,8 4 2 4 2 NE 1022,5 7 0,0
16.02.2019 05:00:00 -1,7 -1,8 5 3 7 4 S 1023,3 9 0,0
16.02.2019 04:00:00 -2,6 -2,7 4 2 4 2 ESE 1023,9 10 0,0
16.02.2019 03:00:00 -2,6 -2,7 2 1 4 2 - 1024,6 9 0,0
16.02.2019 02:00:00 -2,5 -2,6 0 0 7 4 N 1025,7 8 0,0
16.02.2019 01:00:00 -3,1 -3,4 0 0 4 2 N 1026,2 10 0,0
16.02.2019 00:00:00 -2,1 -2,4 2 1 7 4 - 1026,3 10 0,0
15.02.2019 23:00:00 -0,5 -0,8 2 1 7 4 SW 1026,6 10 0,0
15.02.2019 22:00:00 0,7 0,1 4 2 7 4 SSW 1027,3 10 0,0
15.02.2019 21:00:00 1,6 -0,3 4 2 7 4 S 1027,6 10 0,0
15.02.2019 20:00:00 2,8 -0,1 8 4 11 6 SSW 1027,7 10 0,0
15.02.2019 19:00:00 5,3 0,9 5 3 11 6 WNW 1027,5 10 0,0
15.02.2019 18:00:00 6,2 1,5 5 3 11 6 SW 1028,0 10 0,0
15.02.2019 17:00:00 7,1 2,6 8 4 14 8 SW 1028,0 10 0,0
15.02.2019 16:00:00 10,0 2,4 8 4 18 10 WSW 1028,1 10 0,0
15.02.2019 15:00:00 10,3 1,7 15 8 22 12 W 1028,3 10 0,0
15.02.2019 14:00:00 9,9 3,6 9 5 18 10 WNW 1028,8 10 0,0
15.02.2019 13:00:00 8,8 4,8 11 6 22 12 WNW 1029,3 10 0,0
15.02.2019 12:00:00 7,5 5,5 13 7 25 14 WNW 1029,7 10 0,0
15.02.2019 11:00:00 6,3 4,9 15 8 25 14 W 1030,1 10 0,0
15.02.2019 10:00:00 5,9 5,2 13 7 22 12 WNW 1030,0 10 0,0
15.02.2019 09:00:00 5,9 5,2 11 6 25 14 WNW 1029,9 10 0,0
15.02.2019 08:00:00 5,9 5,3 11 6 22 12 NW 1029,6 10 0,0
15.02.2019 07:00:00 6,2 5,5 15 8 25 14 WNW 1029,2 10 0,0
15.02.2019 06:00:00 6,4 5,7 16 9 32 18 WNW 1029,0 10 0,0
15.02.2019 05:00:00 6,7 5,8 16 9 29 16 WNW 1028,7 10 0,0
15.02.2019 04:00:00 6,3 5,4 15 8 29 16 WNW 1028,7 10 0,0
15.02.2019 03:00:00 6,1 4,9 13 7 32 18 NW 1028,9 10 0,0
15.02.2019 02:00:00 6,2 4,7 16 9 25 14 WNW 1029,2 10 0,0
15.02.2019 01:00:00 5,7 3,9 9 5 18 10 W 1028,9 10 0,0
15.02.2019 00:00:00 6,1 3,9 13 7 32 18 WNW 1028,7 10 0,0
14.02.2019 23:00:00 6,0 4,0 16 9 32 18 WNW 1028,8 10 0,0
14.02.2019 22:00:00 5,6 4,2 16 9 29 16 WNW 1028,7 10 0,0
14.02.2019 21:00:00 5,4 4,2 18 10 29 16 WNW 1028,8 10 0,0
14.02.2019 20:00:00 5,2 4,2 16 9 32 18 W 1029,3 10 0,0
14.02.2019 19:00:00 5,3 4,1 24 13 36 19 W 1029,4 10 0,0
14.02.2019 18:00:00 7,0 5,0 13 7 22 12 W 1029,4 10 0,0
14.02.2019 17:00:00 7,2 4,8 13 7 29 16 W 1029,2 10 0,0
14.02.2019 16:00:00 7,3 4,8 16 9 32 18 W 1029,3 10 0,0
14.02.2019 15:00:00 7,2 5,7 13 7 29 16 W 1029,5 10 0,0
14.02.2019 14:00:00 7,4 6,0 15 8 25 14 W 1029,8 10 0,0
14.02.2019 13:00:00 7,4 6,0 13 7 25 14 W 1030,5 10 0,0
14.02.2019 12:00:00 7,9 6,4 13 7 22 12 W 1030,3 10 0,0
14.02.2019 11:00:00 7,6 6,5 11 6 22 12 W 1030,3 10 0,0
14.02.2019 10:00:00 6,9 6,0 9 5 18 10 W 1030,1 10 0,0
14.02.2019 09:00:00 6,6 5,7 9 5 22 12 W 1030,2 10 0,0
14.02.2019 08:00:00 6,3 5,7 15 8 22 12 WNW 1029,5 10 0,0
14.02.2019 07:00:00 6,3 5,9 9 5 14 8 W 1029,1 10 0,0
14.02.2019 06:00:00 5,8 5,5 8 4 14 8 WSW 1028,6 10 0,0
14.02.2019 05:00:00 5,8 5,4 8 4 14 8 W 1028,4 10 0,0
14.02.2019 04:00:00 5,6 5,0 9 5 18 10 WNW 1028,2 10 0,0
14.02.2019 03:00:00 5,1 4,4 11 6 18 10 WNW 1027,9 10 0,0
14.02.2019 02:00:00 4,0 4,0 13 7 - - WNW - 10 -
14.02.2019 01:00:00 2,8 2,4 9 5 18 10 WNW 1027,3 10 0,0
14.02.2019 00:00:00 3,3 2,4 13 7 22 12 NW 1026,8 10 0,0
13.02.2019 23:00:00 4,0 2,7 15 8 36 19 WNW 1026,2 10 0,0
13.02.2019 22:00:00 4,3 2,4 15 8 25 14 WNW 1025,8 10 0,0
13.02.2019 21:00:00 4,1 2,0 15 8 22 12 WNW 1025,3 10 0,0
13.02.2019 20:00:00 4,2 2,2 15 8 22 12 W 1024,9 10 0,0
13.02.2019 19:00:00 4,9 2,9 11 6 18 10 W 1024,6 10 0,0
13.02.2019 18:00:00 6,1 3,3 11 6 22 12 W 1023,7 10 0,0
13.02.2019 17:00:00 7,4 2,9 9 5 29 16 W 1022,9 10 0,0
13.02.2019 16:00:00 9,1 3,5 15 8 40 21 WNW 1021,8 10 0,0
13.02.2019 15:00:00 9,6 3,8 22 12 40 21 WNW 1021,2 10 0,0
13.02.2019 14:00:00 10,3 3,8 22 12 40 21 WNW 1020,6 10 0,0
13.02.2019 13:00:00 9,8 3,7 22 12 43 23 NW 1019,8 10 0,0
13.02.2019 12:00:00 9,2 3,8 26 14 47 25 NW 1019,4 10 0,0
13.02.2019 11:00:00 7,9 4,1 26 14 43 23 WNW 1018,8 10 0,0
13.02.2019 10:00:00 7,1 4,2 24 13 43 23 WNW 1018,3 10 0,0
13.02.2019 09:00:00 6,1 4,1 22 12 43 23 WNW 1017,7 10 0,0
13.02.2019 08:00:00 5,9 4,4 13 7 36 19 WNW 1017,7 10 0,0
13.02.2019 07:00:00 6,0 5,0 24 13 - - W - 10 -
13.02.2019 06:00:00 6,2 5,0 22 12 40 21 W 1016,8 40 0,0
13.02.2019 05:00:00 4,8 4,5 21 11 40 21 W 1016,4 10 0,0
13.02.2019 04:00:00 3,0 3,0 13 7 25 14 W 1017,9 3,6 0,0
13.02.2019 03:00:00 2,0 1,9 13 7 25 14 WSW 1018,8 2,9 0,0
13.02.2019 02:00:00 1,6 1,5 15 8 22 12 SW 1019,7 10 0,0
13.02.2019 01:00:00 1,0 0,9 13 7 25 14 SW 1021,3 10 0,1
13.02.2019 00:00:00 0,4 0,3 11 6 22 12 SW 1022,6 2,9 0,6
12.02.2019 23:00:00 0,4 0,0 9 5 22 12 WSW 1023,8 2,7 0,5
12.02.2019 22:00:00 1,1 -2,8 8 4 22 12 W 1024,2 10 0,0
12.02.2019 21:00:00 1,1 -3,0 11 6 18 10 W 1024,5 10 0,0
12.02.2019 20:00:00 1,1 -3,4 11 6 22 12 W 1024,6 10 0,0
12.02.2019 19:00:00 1,2 -5,3 11 6 18 10 W 1024,9 10 0,0
12.02.2019 18:00:00 1,4 -6,0 8 4 14 8 W 1024,8 10 0,0
12.02.2019 17:00:00 1,8 -6,0 8 4 18 10 W 1024,4 10 0,0
12.02.2019 16:00:00 2,2 -6,1 15 8 25 14 WNW 1024,2 10 0,0
12.02.2019 15:00:00 2,6 -5,3 15 8 32 18 WNW 1023,7 10 0,0
12.02.2019 14:00:00 3,4 -4,5 18 10 32 18 WNW 1023,1 10 0,0
12.02.2019 13:00:00 3,1 -3,9 15 8 32 18 WNW 1022,5 10 0,0
12.02.2019 12:00:00 2,1 -3,6 15 8 25 14 NW 1022,4 10 0,0
12.02.2019 11:00:00 1,2 -3,7 15 8 22 12 NNW 1022,1 10 0,0
12.02.2019 10:00:00 0,0 -4,1 11 6 22 12 NNW 1021,4 10 0,0
12.02.2019 09:00:00 -1,0 -4,3 13 7 22 12 NNW 1020,3 10 0,0
12.02.2019 08:00:00 -1,8 -4,6 13 7 22 12 NNW 1019,3 10 0,0
12.02.2019 07:00:00 -1,5 -4,8 15 8 25 14 NNW 1018,0 10 0,0
12.02.2019 06:00:00 -1,2 -4,5 11 6 25 14 NNW 1017,0 10 0,0
12.02.2019 05:00:00 -1,1 -4,6 13 7 25 14 NW 1016,2 10 0,0
12.02.2019 04:00:00 -0,7 -4,6 13 7 29 16 NW 1015,1 10 0,0
12.02.2019 03:00:00 -0,6 -4,5 16 9 25 14 NW 1014,4 10 0,0
12.02.2019 02:00:00 -0,3 -4,4 13 7 25 14 NW 1013,4 10 0,0
12.02.2019 01:00:00 0,2 -4,3 16 9 29 16 NW 1012,5 10 0,0

tt = Température de l'air
td = dewpoint
ff = Vitesse du vent
fx = gusts
dd = Direction du vent
ppp = reduced air pressure
vv = visibility
rr = Quantités de précipitations

stations d'obs. à proximité